Location: Central Falls
(41.8900°N, 71.3929°W)
Time: 22:24:40
(UTC+00:00)

Courier 1B Rocket - Pass Details

Date: 09 December 2023
Orbit: 920 x 1202 km, 28.2° (Epoch: 04 March)

Event Time Altitude Azimuth Distance (km) Brightness Sun altitude
Rises 13:39:23 0° 206° (SSW) 3,950 8.5 13.3°
Reaches altitude 10° 13:44:23 10° 178° (S) 2,922 8.5 13.9°
Maximum altitude 13:46:52 12° 157° (SSE) 2,739 9.2 14.2°
Drops below altitude 10° 13:49:18 10° 137° (SE) 2,850 10.5 14.5°
Sets 13:53:59 0° 108° (ESE) 3,731 9.0 15.0°
